Stations météo

Publicité
Ile Rousse, France (7753): Température de l'air & dewpoint: 18.01.2021 06:00:00 - 24.01.2021 06:00:00 (CET)Ile Rousse, France (7753): Vitesse du vent & gusts: 18.01.2021 06:00:00 - 24.01.2021 06:00:00 (CET)Ile Rousse, France (7753): Direction du vent: 18.01.2021 06:00:00 - 24.01.2021 06:00:00 (CET)Ile Rousse, France (7753): reduced air pressure: 18.01.2021 06:00:00 - 24.01.2021 06:00:00 (CET)Ile Rousse, France (7753): visibility: 18.01.2021 06:00:00 - 24.01.2021 06:00:00 (CET)Ile Rousse, France (7753): Quantités de précipitations: 18.01.2021 06:00:00 - 24.01.2021 06:00:00 (CET)
Date & Time tt [°C] td [°C] ff [km/h] ff [knt] fx [km/h] fx [knt] dd ppp [hPa] vv [km] rr [mm]
24.01.2021 06:00:00 - - - - - - - - - -
24.01.2021 05:00:00 10,8 7,5 57 31 96 52 SW 994,9 - 0,0
24.01.2021 04:00:00 11,8 6,1 59 32 107 58 SW 995,8 10 0,0
24.01.2021 03:00:00 10,9 7,4 54 29 92 50 SW 996,8 10 0,0
24.01.2021 02:00:00 11,4 6,3 47 25 91 49 SW 998,0 - 0,0
24.01.2021 01:00:00 12,1 6,2 56 31 96 52 WSW 998,4 10 0,0
24.01.2021 00:00:00 12,3 5,7 62 33 108 58 WSW 998,9 - 0,0
23.01.2021 23:00:00 12,0 5,4 67 36 113 61 WSW 999,4 - 0,0
23.01.2021 22:00:00 11,9 5,5 63 34 104 56 WSW 999,6 10 0,0
23.01.2021 21:00:00 11,6 5,7 66 36 125 68 WSW 999,2 - 0,0
23.01.2021 20:00:00 11,7 4,9 69 37 121 65 WSW 999,4 - 0,0
23.01.2021 19:00:00 12,4 2,5 74 40 113 61 SW 1000,0 10 0,0
23.01.2021 18:00:00 11,9 2,1 75 41 117 63 SW 1000,1 - 0,0
23.01.2021 17:00:00 11,7 2,9 69 38 101 55 SW 1000,2 - 0,0
23.01.2021 16:00:00 11,4 4,6 66 36 122 66 WSW 1001,1 10 0,0
23.01.2021 15:00:00 12,0 4,5 73 40 133 72 WSW 1000,5 - 0,0
23.01.2021 14:00:00 11,7 3,2 86 47 127 68 SW 999,3 - 0,0
23.01.2021 13:00:00 11,5 2,5 80 43 139 75 WSW 1000,3 10 0,2
23.01.2021 12:00:00 10,8 3,1 86 46 134 73 WSW 999,9 - 0,0
23.01.2021 11:00:00 10,5 3,5 74 40 130 70 WSW 999,4 - 0,0
23.01.2021 10:00:00 10,0 2,8 78 42 135 73 WSW 998,8 8 0,0
23.01.2021 09:00:00 9,7 3,2 73 39 132 71 WSW 998,1 - 0,2
23.01.2021 08:00:00 9,8 2,9 82 44 143 77 WSW 997,5 - 0,2
23.01.2021 07:00:00 9,7 1,6 81 44 149 81 WSW 996,5 10 0,4
23.01.2021 06:00:00 9,4 1,5 84 46 157 85 WSW 995,8 - 2,6
23.01.2021 05:00:00 9,4 1,5 96 52 159 86 WSW 994,9 - 3,6
23.01.2021 04:00:00 9,3 1,7 84 45 163 88 WSW 994,8 10 1,8
23.01.2021 03:00:00 9,3 1,4 90 49 153 82 WSW 994,0 - 1,8
23.01.2021 02:00:00 9,5 2,3 84 45 151 82 WSW 994,0 - 0,4
23.01.2021 01:00:00 9,7 3,2 85 46 149 81 WSW 993,3 8 0,5
23.01.2021 00:00:00 9,8 6,3 85 46 147 80 WSW 993,6 - 0,8
22.01.2021 23:00:00 9,3 6,7 79 43 129 70 WSW 993,7 - 1,0
22.01.2021 22:00:00 9,7 8,1 68 37 118 64 WSW 993,7 8 2,0
22.01.2021 21:00:00 9,9 8,0 67 36 112 61 WSW 993,8 - 1,2
22.01.2021 20:00:00 10,0 7,8 55 30 111 60 WSW 995,3 - 1,6
22.01.2021 19:00:00 10,9 6,2 46 25 111 60 SW 994,6 8 0,8
22.01.2021 18:00:00 10,3 7,4 63 34 113 61 SW 995,7 - 0,4
22.01.2021 17:00:00 10,7 9,8 45 25 81 44 WSW 996,0 - 5,1
22.01.2021 16:00:00 12,0 10,7 15 8 19 10 ESE 996,3 20 1,8
22.01.2021 15:00:00 12,9 9,7 4 2 22 12 ENE 998,4 - 1,0
22.01.2021 14:00:00 13,9 9,7 6 3 45 24 E 999,8 - 0,6
22.01.2021 13:00:00 15,3 7,8 5 3 31 17 SSE 1001,6 20 0,0
22.01.2021 12:00:00 16,1 8,6 14 7 28 15 E 1002,5 - 0,0
22.01.2021 11:00:00 15,0 7,0 10 6 18 10 ENE 1004,1 - 0,0
22.01.2021 10:00:00 13,7 7,5 18 10 29 16 E 1004,7 20 0,0
22.01.2021 09:00:00 13,7 7,9 14 8 35 19 SSE 1005,1 - 0,0
22.01.2021 08:00:00 16,1 6,5 18 10 68 37 SSW 1005,1 - 0,0
22.01.2021 07:00:00 15,5 6,2 38 20 97 53 SW 1004,8 20 0,0
22.01.2021 06:00:00 14,8 6,4 30 16 64 35 SW 1005,8 - 0,0
22.01.2021 05:00:00 14,8 5,6 21 11 49 27 SSW 1006,9 - 0,0
22.01.2021 04:00:00 13,9 6,0 8 4 21 11 WSW 1007,3 20 0,0
22.01.2021 03:00:00 14,2 5,8 7 4 52 28 WSW 1008,1 - 0,0
22.01.2021 02:00:00 15,4 4,7 26 14 61 33 WSW 1008,2 - 0,0
22.01.2021 01:00:00 15,0 5,5 32 17 66 36 SW 1009,2 20 0,0
22.01.2021 00:00:00 14,6 6,4 27 15 57 31 SW 1010,2 - 0,0
21.01.2021 23:00:00 14,6 7,2 29 16 66 36 SSW 1011,1 - 0,0
21.01.2021 22:00:00 13,5 8,5 20 11 29 16 SW 1011,3 20 0,0
21.01.2021 21:00:00 12,4 5,3 7 4 13 7 W 1011,9 - 0,0
21.01.2021 20:00:00 12,9 4,3 5 3 9 5 ENE 1011,9 - 0,0
21.01.2021 19:00:00 13,0 4,4 6 3 13 7 SSE 1012,2 20 0,0
21.01.2021 18:00:00 13,0 4,2 4 2 13 7 ESE 1012,1 - 0,0
21.01.2021 17:00:00 13,2 6,3 10 5 12 7 ESE 1012,4 - 0,0
21.01.2021 16:00:00 14,1 5,4 6 3 12 6 SE 1012,1 20 0,0
21.01.2021 15:00:00 15,3 4,9 2 1 17 9 S 1012,3 - 0,0
21.01.2021 14:00:00 14,1 4,4 11 6 18 10 SSE 1012,7 - 0,0
21.01.2021 13:00:00 13,0 3,1 11 6 14 8 E 1013,5 - 0,0
21.01.2021 12:00:00 12,3 5,5 8 4 13 7 WSW 1013,9 - 0,0
21.01.2021 11:00:00 13,4 1,1 2 1 16 9 ENE 1013,8 - 0,0
21.01.2021 10:00:00 13,3 0,3 3 2 12 6 NW 1013,7 20 0,0
21.01.2021 09:00:00 12,7 0,4 6 4 16 8 ESE 1013,4 - 0,0
21.01.2021 08:00:00 12,6 0,7 2 1 13 7 NNE 1013,3 - 0,0
21.01.2021 07:00:00 12,9 0,3 14 8 19 10 SSE 1012,9 15 0,0
21.01.2021 06:00:00 12,1 0,2 4 2 10 5 E 1013,1 - 0,0
21.01.2021 05:00:00 11,1 3,6 6 3 9 5 W 1013,3 - 0,0
21.01.2021 04:00:00 10,7 1,5 3 2 8 5 E 1013,1 20 0,0
21.01.2021 03:00:00 11,1 -0,7 4 2 10 6 SE 1013,3 - 0,0
21.01.2021 02:00:00 10,8 3,1 3 2 10 5 ENE 1013,5 - 0,0
21.01.2021 01:00:00 10,7 2,5 5 3 12 6 NNE 1013,9 - 0,0
21.01.2021 00:00:00 10,4 3,9 8 5 11 6 WSW 1014,5 - 0,0
20.01.2021 23:00:00 11,4 2,9 8 4 15 8 SE 1015,0 - 0,0
20.01.2021 22:00:00 10,7 4,4 11 6 16 8 SE 1015,4 20 0,0
20.01.2021 21:00:00 10,1 6,1 10 5 24 13 WSW 1016,4 - 0,0
20.01.2021 20:00:00 9,5 5,9 8 4 17 9 W 1017,1 - 0,0
20.01.2021 19:00:00 10,7 6,4 10 5 13 7 SSE 1016,8 20 0,0
20.01.2021 18:00:00 11,2 6,5 4 2 9 5 N 1017,6 - 0,0
20.01.2021 17:00:00 11,5 6,6 7 4 10 6 N 1017,8 - 0,0
20.01.2021 16:00:00 12,0 6,7 8 4 11 6 NE 1018,0 20 0,0
20.01.2021 15:00:00 12,5 6,3 9 5 16 9 N 1018,7 - 0,0
20.01.2021 14:00:00 12,5 5,4 9 5 16 9 NE 1019,0 - 0,0
20.01.2021 13:00:00 12,6 4,3 12 7 16 9 NNE 1019,7 20 0,0
20.01.2021 12:00:00 12,9 4,3 5 3 14 8 NNE 1020,4 - 0,0
20.01.2021 11:00:00 12,9 3,8 9 5 16 9 NE 1021,2 - 0,0
20.01.2021 10:00:00 13,4 4,0 8 4 17 9 SE 1021,3 - 0,0
20.01.2021 09:00:00 11,7 2,9 10 5 14 8 NE 1021,2 - 0,0
20.01.2021 08:00:00 11,4 2,7 5 3 11 6 NNE 1021,0 - 0,0
20.01.2021 07:00:00 11,5 1,1 8 4 11 6 NNE 1021,1 - 0,0
20.01.2021 06:00:00 11,8 2,0 4 2 16 9 SSW 1020,9 - 0,0
20.01.2021 05:00:00 11,0 2,3 13 7 26 14 ESE 1021,2 - 0,0
20.01.2021 04:00:00 11,2 3,0 9 5 16 9 S 1021,6 - 0,0
20.01.2021 03:00:00 10,6 2,4 6 4 15 8 SSE 1022,2 - 0,0
20.01.2021 02:00:00 11,7 3,5 8 4 43 23 WSW 1022,1 - 0,0
20.01.2021 01:00:00 11,6 3,4 21 12 33 18 SW 1022,6 20 0,0
20.01.2021 00:00:00 11,0 2,8 5 3 9 5 ENE 1023,1 - 0,0
19.01.2021 23:00:00 11,6 3,4 5 3 40 21 NW 1023,4 - 0,0
19.01.2021 22:00:00 11,9 2,9 27 14 52 28 SW 1023,2 20 0,0
19.01.2021 21:00:00 11,3 2,8 30 16 49 26 SW 1023,4 - 0,0
19.01.2021 20:00:00 11,0 2,3 32 17 50 27 SW 1023,7 - 0,0
19.01.2021 19:00:00 10,5 2,8 30 16 48 26 SW 1023,5 20 0,0
19.01.2021 18:00:00 10,7 2,8 36 19 54 29 SW 1023,3 - 0,0
19.01.2021 17:00:00 11,4 1,1 25 14 44 24 WSW 1023,3 - 0,0
19.01.2021 16:00:00 12,7 4,9 20 11 45 24 WSW 1023,4 20 0,0
19.01.2021 15:00:00 12,4 6,2 24 13 42 23 WSW 1023,4 - 0,0
19.01.2021 14:00:00 12,2 5,1 15 8 30 16 W 1023,8 - 0,0
19.01.2021 13:00:00 12,2 5,1 17 9 28 15 W 1024,6 - 0,0
19.01.2021 12:00:00 11,3 4,5 6 3 13 7 WNW 1025,4 - 0,0
19.01.2021 11:00:00 11,0 5,3 8 4 14 7 W 1025,9 - 0,0
19.01.2021 10:00:00 11,0 5,7 3 2 5 3 SW 1025,8 - 0,0
19.01.2021 09:00:00 9,2 4,0 0 0 11 6 N 1025,3 - 0,0
19.01.2021 08:00:00 8,8 3,8 7 4 9 5 SSE 1025,1 - 0,0
19.01.2021 07:00:00 9,1 4,1 0 0 11 6 N 1025,0 20 0,0
19.01.2021 06:00:00 9,0 4,2 8 4 13 7 S 1024,8 - 0,0
19.01.2021 05:00:00 8,9 4,1 8 5 10 6 WSW 1024,8 - 0,0
19.01.2021 04:00:00 9,4 3,6 8 4 11 6 S 1024,5 18 0,0
19.01.2021 03:00:00 9,4 4,2 5 3 10 5 SSE 1024,8 - 0,0
19.01.2021 02:00:00 9,2 3,6 6 3 8 5 SSE 1024,6 - 0,0
19.01.2021 01:00:00 9,1 3,3 6 3 9 5 SSE 1024,9 - 0,0
19.01.2021 00:00:00 9,7 4,5 3 2 11 6 NNE 1024,8 - 0,0
18.01.2021 23:00:00 9,6 2,7 10 5 15 8 S 1024,3 - 0,0
18.01.2021 22:00:00 9,5 3,0 6 3 13 7 SE 1024,5 - 0,0
18.01.2021 21:00:00 9,6 3,8 10 5 15 8 SSE 1024,4 - 0,0
18.01.2021 20:00:00 9,7 4,5 13 7 22 12 S 1024,1 - 0,0
18.01.2021 19:00:00 9,4 4,2 11 6 17 9 SSE 1023,9 - 0,0
18.01.2021 18:00:00 9,6 4,2 10 5 12 7 SE 1023,3 - 0,0
18.01.2021 17:00:00 10,0 5,0 6 3 9 5 E 1022,9 - 0,0
18.01.2021 16:00:00 10,8 5,1 4 2 16 9 NW 1023,0 18 0,0
18.01.2021 15:00:00 12,0 4,7 10 5 18 10 WNW 1022,8 - 0,0
18.01.2021 14:00:00 11,7 4,2 10 5 16 9 WNW 1022,6 - 0,0
18.01.2021 13:00:00 11,0 4,4 6 4 12 6 NNW 1022,8 - 0,0
18.01.2021 12:00:00 11,1 3,9 4 2 16 9 NW 1023,3 - 0,0
18.01.2021 11:00:00 10,7 3,9 6 3 11 6 WNW 1023,4 - 0,0
18.01.2021 10:00:00 10,0 2,6 10 5 15 8 SE 1022,4 - 0,0
18.01.2021 09:00:00 9,2 1,1 4 2 21 12 SSE 1021,9 - 0,0
18.01.2021 08:00:00 8,6 1,7 13 7 17 9 SSE 1021,6 - 0,0
18.01.2021 07:00:00 8,9 3,3 0 0 5 3 N 1021,6 - 0,0
18.01.2021 06:00:00 8,9 2,9 3 2 6 3 W 1021,1 - 0,0

tt = Température de l'air
td = dewpoint
ff = Vitesse du vent
fx = gusts
dd = Direction du vent
ppp = reduced air pressure
vv = visibility
rr = Quantités de précipitations

stations d'obs. à proximité